Weather History for KMKL - January, 2013

Change the Weather History Date:

Sunday, January 13, 2013

  Actual Average Record
Temperature  
Mean Temperature 51 °F 38 °F  
Max Temperature 71 °F 48 °F 76 °F (1960)
Min Temperature 30 °F 28 °F 6 °F (2011)
Degree Days  
Heating Degree Days 14 27  
Month to date heating degree days 272 351  
Since 1 July heating degree days 1634 1769  
Cooling Degree Days 0 0  
Month to date cooling degree days 3 0  
Year to date cooling degree days 3 0  
Moisture  
Dew Point 43 °F    
Average Humidity 87    
Maximum Humidity 100    
Minimum Humidity 73    
Precipitation  
Precipitation 2.87 in 0.12 in 2.87 in (2013)
Month to date precipitation 4.80 1.67  
Year to date precipitation 4.80 1.67  
Snow  
Snow 0.00 in 0.10 in 2.00 in (1968)
Month to date snowfall 0.0 0.9  
Since 1 July snowfall 0.5 1.2  
Snow Depth 0.00 in    
Sea Level Pressure  
Sea Level Pressure 29.97 in    
Wind  
Wind Speed 12 mph (NW)    
Max Wind Speed 24 mph    
Max Gust Speed 31 mph    
Visibility 7 miles    
Events Rain , Thunderstorm    
T = Trace of Precipitation, MM = Missing Value Source: NWS Daily Summary

Daily Weather History Graph

Daily Weather History Graph

Search for Another Location

Airport or City:

Trip Planner

Search our weather history database for the weather conditions in past years. The results will help you decide how hot, cold, wet, or windy it might be!

Date:

Astronomy

Jan. 13, 2013 Rise Set
Actual Time 7:04 AM CST 5:04 PM CST
Civil Twilight 6:37 AM CST 5:32 PM CST
Nautical Twilight 6:05 AM CST 6:03 PM CST
Astronomical Twilight 5:35 AM CST 6:34 PM CST
Moon 8:09 AM CST (1/13) 7:35 PM CST (1/13)
Length of Visible Light 10h 54m
Length of Day
9h 59m
Waxing Crescent, 5% of the Moon is Illuminated
Jan 13
Waxing Crescent
Jan 18
First Quarter
Jan 26
Full
Feb 3
Last Quarter
Feb 10
New

Hourly Weather History & Observations

Time (CST) Temp. Windchill Dew Point Humidity Pressure Visibility Wind Dir Wind Speed Gust Speed Precip Events Conditions
12:53 AM 71.1 °F - 63.0 °F 75% 29.75 in 10.0 mi South 12.7 mph 21.9 mph N/A   Mostly Cloudy
1:01 AM 71.6 °F - 62.6 °F 73% 29.76 in 10.0 mi South 13.8 mph 26.5 mph N/A   Mostly Cloudy
1:08 AM 71.6 °F - 62.6 °F 73% 29.76 in 10.0 mi South 17.3 mph 26.5 mph N/A   Mostly Cloudy
1:53 AM 70.0 °F - 62.1 °F 76% 29.77 in 10.0 mi South 17.3 mph 26.5 mph N/A   Overcast
2:17 AM 68.0 °F - 62.6 °F 83% 29.82 in 10.0 mi WNW 19.6 mph 25.3 mph 0.00 in   Overcast
2:28 AM 62.6 °F - 57.2 °F 82% 29.82 in 2.5 mi West 12.7 mph 23.0 mph 0.16 in Rain Heavy Rain
2:36 AM 60.8 °F - 59.0 °F 94% 29.82 in 1.2 mi West 19.6 mph 28.8 mph 0.31 in Rain Heavy Rain
2:47 AM 60.8 °F - 59.0 °F 94% 29.82 in 3.0 mi WNW 11.5 mph 26.5 mph 0.40 in Rain Heavy Rain
2:55 AM 60.8 °F - 59.0 °F 94% 29.82 in 3.0 mi West 9.2 mph 18.4 mph 0.06 in Rain Rain
3:02 AM 60.8 °F - 59.0 °F 94% 29.83 in 2.0 mi West 8.1 mph - 0.11 in Rain Heavy Rain
3:17 AM 60.8 °F - 59.0 °F 94% 29.83 in 1.2 mi West 5.8 mph - 0.40 in Rain , Thunderstorm Heavy Rain
3:49 AM 60.8 °F - 59.0 °F 94% 29.84 in 5.0 mi Calm Calm - 0.62 in Rain , Thunderstorm Thunderstorms and Rain
3:53 AM 60.1 °F - 59.0 °F 96% 29.83 in 6.0 mi Calm Calm - 0.63 in Rain , Thunderstorm Light Thunderstorms and Rain
4:07 AM 57.2 °F - 57.2 °F 100% 29.84 in 6.0 mi NNW 4.6 mph - 0.03 in Rain , Thunderstorm Thunderstorms and Rain
4:25 AM 57.2 °F - 55.4 °F 94% 29.84 in 7.0 mi NNW 4.6 mph - 0.06 in Rain Light Rain
4:51 AM 55.4 °F - 53.6 °F 94% 29.85 in 5.0 mi North 8.1 mph - 0.14 in Rain , Thunderstorm Rain
4:53 AM 55.9 °F - 54.0 °F 93% 29.84 in 5.0 mi North 8.1 mph - 0.15 in Rain , Thunderstorm Rain
5:45 AM 53.6 °F - 51.8 °F 94% 29.88 in 7.0 mi WNW 9.2 mph - 0.16 in Rain Rain
5:53 AM 52.0 °F - 51.1 °F 97% 29.88 in 6.0 mi NW 10.4 mph - 0.20 in Rain Rain
5:58 AM 51.8 °F - 50.0 °F 94% 29.89 in 4.0 mi NW 10.4 mph - 0.03 in Rain , Thunderstorm Heavy Thunderstorms and Rain
6:17 AM 50.0 °F - 48.2 °F 94% 29.84 in 6.0 mi NNE 8.1 mph - 0.12 in Rain Rain
6:53 AM 48.9 °F - 46.9 °F 93% 29.87 in 4.0 mi NW 10.4 mph - 0.25 in Rain Heavy Rain
7:50 AM 46.4 °F 41.1 °F 46.4 °F 100% 29.89 in 9.0 mi NNW 11.5 mph - 0.10 in Rain Rain
7:53 AM 46.9 °F - 46.0 °F 97% 29.89 in 8.0 mi NNW 11.5 mph - 0.11 in Rain Rain
8:33 AM 44.6 °F 39.7 °F 44.6 °F 100% 29.90 in 2.0 mi NW 9.2 mph - 0.18 in Rain Heavy Rain
8:43 AM 44.6 °F 39.7 °F 42.8 °F 93% 29.91 in 5.0 mi NW 9.2 mph - 0.20 in Rain Light Rain
8:53 AM 44.1 °F 38.1 °F 42.1 °F 93% 29.91 in 10.0 mi NW 11.5 mph - 0.21 in Rain Light Rain
9:46 AM 41.0 °F 34.3 °F 39.2 °F 93% 29.97 in 7.0 mi NW 11.5 mph - 0.03 in Rain , Thunderstorm Light Rain
9:53 AM 41.0 °F 37.1 °F 39.0 °F 93% 29.97 in 5.0 mi Variable 5.8 mph - 0.05 in Rain , Thunderstorm Rain
10:14 AM 41.0 °F 34.3 °F 39.2 °F 93% 29.94 in 4.0 mi NNW 11.5 mph - 0.05 in Rain Rain
10:53 AM 41.0 °F 37.1 °F 39.0 °F 93% 29.94 in 8.0 mi North 5.8 mph - 0.10 in Rain Light Rain
11:29 AM 41.0 °F 34.7 °F 39.2 °F 93% 29.95 in 2.0 mi NNW 10.4 mph - 0.16 in Rain Heavy Rain
11:39 AM 39.2 °F 33.6 °F 39.2 °F 100% 29.94 in 1.8 mi NNW 8.1 mph - 0.24 in Rain Heavy Rain
11:53 AM 41.0 °F 33.5 °F 39.0 °F 93% 29.94 in 4.0 mi NNW 13.8 mph - 0.30 in Rain Rain
12:18 PM 39.2 °F 30.8 °F 39.2 °F 100% 29.95 in 2.5 mi NW 15.0 mph - 0.14 in Rain Heavy Rain
12:37 PM 39.2 °F 30.8 °F 37.4 °F 93% 29.93 in 3.0 mi NNW 15.0 mph - 0.25 in Rain Heavy Rain
12:53 PM 39.0 °F 30.3 °F 37.0 °F 93% 29.95 in 5.0 mi NW 16.1 mph 24.2 mph 0.31 in Rain Rain
1:22 PM 39.2 °F 30.2 °F 35.6 °F 87% 29.95 in 8.0 mi NNW 17.3 mph - 0.09 in Rain Light Rain
1:38 PM 39.2 °F 31.2 °F 37.4 °F 93% 29.97 in 10.0 mi NNW 13.8 mph 20.7 mph 0.10 in Rain Light Rain
1:42 PM 39.2 °F 31.6 °F 37.4 °F 93% 29.97 in 10.0 mi North 12.7 mph - 0.10 in Rain Light Rain
1:53 PM 39.0 °F 31.0 °F 37.0 °F 93% 29.98 in 10.0 mi NNW 13.8 mph - 0.10 in   Overcast
2:53 PM 37.0 °F 28.9 °F 35.1 °F 93% 30.04 in 10.0 mi NNW 12.7 mph - 0.03 in   Overcast
3:07 PM 37.4 °F 28.9 °F 33.8 °F 87% 30.06 in 6.0 mi NNW 13.8 mph - 0.00 in   Overcast
3:14 PM 37.4 °F 28.9 °F 35.6 °F 93% 30.08 in 6.0 mi NW 13.8 mph - 0.00 in Rain Light Rain
3:22 PM 37.4 °F 27.5 °F 33.8 °F 87% 30.08 in 6.0 mi NNW 18.4 mph - 0.01 in Rain Light Rain
3:53 PM 36.0 °F 26.7 °F 34.0 °F 93% 30.14 in 10.0 mi NW 15.0 mph - 0.01 in   Overcast
4:53 PM 34.0 °F 21.8 °F 30.9 °F 89% 30.17 in 10.0 mi NNW 23.0 mph 28.8 mph 0.02 in   Overcast
5:11 PM 33.8 °F 23.5 °F 32.0 °F 93% 30.16 in 10.0 mi NNW 16.1 mph - N/A   Overcast
5:27 PM 33.8 °F 24.3 °F 30.2 °F 87% 30.16 in 10.0 mi North 13.8 mph 23.0 mph N/A   Mostly Cloudy
5:39 PM 33.8 °F 23.5 °F 32.0 °F 93% 30.16 in 10.0 mi North 16.1 mph 20.7 mph N/A   Overcast
5:53 PM 34.0 °F 24.2 °F 32.0 °F 92% 30.17 in 10.0 mi North 15.0 mph - N/A   Overcast
6:53 PM 34.0 °F 24.2 °F 30.9 °F 89% 30.19 in 10.0 mi North 15.0 mph - N/A   Overcast
7:21 PM 33.8 °F 23.5 °F 30.2 °F 87% 30.19 in 10.0 mi North 16.1 mph - N/A   Overcast
7:53 PM 34.0 °F 26.6 °F 30.0 °F 85% 30.21 in 10.0 mi NNW 9.2 mph - N/A   Overcast
8:19 PM 33.8 °F 24.8 °F 28.4 °F 81% 30.22 in 10.0 mi North 12.7 mph - N/A   Mostly Cloudy
8:53 PM 32.0 °F 23.6 °F 28.0 °F 85% 30.25 in 10.0 mi North 10.4 mph - N/A   Mostly Cloudy
9:53 PM 30.9 °F 21.7 °F 27.0 °F 85% 30.25 in 10.0 mi North 11.5 mph - N/A   Overcast
10:53 PM 30.9 °F 21.7 °F 27.0 °F 85% 30.27 in 10.0 mi North 11.5 mph - N/A   Mostly Cloudy
11:53 PM 30.0 °F 21.7 °F 26.1 °F 85% 30.28 in 10.0 mi North 9.2 mph - N/A   Mostly Cloudy